Showing default

YOTSUBA-KULOVER, 65941

Orbit data source: Space-Track

YOTSUBA-KULOVER, 65941 is a Japanese payload satellite in LEO that was delivered to the ISS. Payload-class satellites include a variety of spacecraft equipped with specific instruments for various scientific and technological missions. These include communications satellites like Starlink; space stations such as the ISS; scientific satellites like the Hubble; Earth observation satellites from companies like Planet Labs, Umbra, and HawkEye 360; GPS; miniature CubeSats for education and research; and military/defense satellites.

Loading next visibility...
Identifier
65941, 1998-067XN
Orbit
LEO
Country
Flag of JPJP / JPN
Related business
Manufacturer
Kyutech
Mission
Operational spacecraft
Bus & Motor
CUBESAT 2U, Unknown motor
Mass
1.8 kg wet, 1.8 kg dry
Launch date (UTC)
1998-11-20 (27 years ago)
Launch vehicle
FALCON 9
Launch site
Tyuratam Missile And Space Complex (TTMTR)
Object type
Payload
Rocket body
Debris
Shape & HBR
Unknown shape, 14.5 m
Radar Cross Section
RCS unknown

Expand to show TLE details & history
Last TLE update: 1 day ago

TLE from 1 day ago
0 YOTSUBA-KULOVER
1 65941U 98067XN  25339.91729736  .00078420  00000-0  10119-2 0  9996
2 65941  51.6277 174.2380 0002020 187.9006 172.1955 15.58286182  8795
Epoch: 2025-12-05T22:00Z
TLE epoch observation values (Epoch: 2025-12-05T22:00:54.491Z)
Latitude
-0.00003°
Longitude
129.05842°
Altitude
394.715 km
Speed
7.674 km/s
True Right ascension
11h 36m 57s
True Declination
0° 00' 00"
Sunlit
Object was in daylight at epoch
Visualization orbit readout
Latitude
Unknown
Longitude
Unknown
Altitude
Unknown
Speed
Unknown
Apparent Right ascension
Unknown
Apparent Declination
Unknown
Sunlit
N/A
Visualization observer readout
Local Sidereal Time
04:05:21
Azimuth
Unknown
Elevation
Unknown
Doppler factor
Unknown
Orbital elements
Apogee altitude
394.496 km
Perigee altitude
391.761 km
Semi-major axis
6,771.266 km
Eccentricity
0.0002
Inclination
51.6277°
RAAN
174.238°
Arg. of periapsis
187.9006°
True anomaly
172.19864°
Mean anomaly
172.1955°
Eccentric anomaly
172.19707°
Mean motion
3.89528 °/min
Orbital period
92.42 mins
BSTAR
0.0010119
Loading maneuver chart data...
Computing Atmospheric mass density...

Documentation

Showing up to 5 results
|